TimeEST,TemperatureF,Dew PointF,Humidity,Sea Level PressureIn,VisibilityMPH,Wind Direction,Wind SpeedMPH,Gust SpeedMPH,PrecipitationIn,Events,Conditions,WindDirDegrees,DateUTC
12:09 AM,26.6,23.0,86,30.37,10.0,Calm,Calm,-,N/A,,Clear,0,2012-12-14 05:09:00
12:30 AM,26.6,23.0,86,30.37,10.0,Calm,Calm,-,N/A,,Clear,0,2012-12-14 05:30:00
12:51 AM,24.8,23.0,93,30.36,10.0,Calm,Calm,-,N/A,,Clear,0,2012-12-14 05:51:00
1:12 AM,24.8,23.0,93,30.36,10.0,Calm,Calm,-,N/A,,Clear,0,2012-12-14 06:12:00
1:33 AM,24.8,23.0,93,30.36,10.0,Calm,Calm,-,N/A,,Clear,0,2012-12-14 06:33:00
1:57 AM,24.8,23.0,93,30.36,10.0,Calm,Calm,-,N/A,,Clear,0,2012-12-14 06:57:00
3:00 AM,23.0,23.0,100,30.36,10.0,Calm,Calm,-,N/A,,Clear,0,2012-12-14 08:00:00
3:21 AM,23.0,21.2,93,30.36,10.0,Calm,Calm,-,N/A,,Clear,0,2012-12-14 08:21:00
3:42 AM,23.0,21.2,93,30.35,10.0,Calm,Calm,-,N/A,,Clear,0,2012-12-14 08:42:00
4:03 AM,23.0,21.2,93,30.35,10.0,Calm,Calm,-,N/A,,Clear,0,2012-12-14 09:03:00
4:24 AM,23.0,21.2,93,30.34,10.0,Calm,Calm,-,N/A,,Clear,0,2012-12-14 09:24:00
4:45 AM,23.0,21.2,93,30.34,10.0,Calm,Calm,-,N/A,,Clear,0,2012-12-14 09:45:00
5:06 AM,23.0,21.2,93,30.34,10.0,Calm,Calm,-,N/A,,Clear,0,2012-12-14 10:06:00
5:30 AM,23.0,21.2,93,30.34,10.0,Calm,Calm,-,N/A,,Clear,0,2012-12-14 10:30:00
5:51 AM,23.0,21.2,93,30.35,10.0,Calm,Calm,-,N/A,,Clear,0,2012-12-14 10:51:00
6:12 AM,21.2,21.2,100,30.35,10.0,Calm,Calm,-,N/A,,Clear,0,2012-12-14 11:12:00
6:33 AM,23.0,21.2,93,30.34,10.0,Calm,Calm,-,N/A,,Clear,0,2012-12-14 11:33:00
6:54 AM,21.2,21.2,100,30.35,10.0,Calm,Calm,-,N/A,,Clear,0,2012-12-14 11:54:00
7:15 AM,21.2,21.2,100,30.35,10.0,Calm,Calm,-,N/A,,Clear,0,2012-12-14 12:15:00
7:36 AM,21.2,19.4,93,30.35,10.0,Calm,Calm,-,N/A,,Clear,0,2012-12-14 12:36:00
7:57 AM,21.2,21.2,100,30.35,10.0,Calm,Calm,-,N/A,,Clear,0,2012-12-14 12:57:00
8:18 AM,23.0,21.2,93,30.34,10.0,Calm,Calm,-,N/A,,Clear,0,2012-12-14 13:18:00
8:39 AM,24.8,23.0,93,30.34,10.0,Calm,Calm,-,N/A,,Clear,0,2012-12-14 13:39:00
9:00 AM,28.4,26.6,93,30.34,10.0,Calm,Calm,-,N/A,,Clear,0,2012-12-14 14:00:00
9:42 AM,33.8,30.2,87,30.35,10.0,Calm,Calm,-,N/A,,Clear,0,2012-12-14 14:42:00
10:03 AM,37.4,32.0,81,30.34,10.0,SW,3.5,-,N/A,,Clear,230,2012-12-14 15:03:00
10:27 AM,41.0,30.2,65,30.34,10.0,SW,8.1,-,N/A,,Clear,230,2012-12-14 15:27:00
10:48 AM,42.8,30.2,61,30.34,10.0,SW,9.2,-,N/A,,Clear,220,2012-12-14 15:48:00
11:09 AM,44.6,30.2,57,30.33,10.0,SSW,8.1,-,N/A,,Clear,210,2012-12-14 16:09:00
11:30 AM,46.4,28.4,50,30.32,10.0,WSW,8.1,-,N/A,,Clear,250,2012-12-14 16:30:00
11:51 AM,48.2,28.4,46,30.31,10.0,SSW,6.9,-,N/A,,Clear,200,2012-12-14 16:51:00
12:54 PM,50.0,30.2,47,30.28,10.0,West,5.8,-,N/A,,Clear,260,2012-12-14 17:54:00
1:15 PM,50.0,28.4,43,30.28,10.0,SW,5.8,-,N/A,,Clear,220,2012-12-14 18:15:00
1:36 PM,51.8,28.4,41,30.27,10.0,SW,4.6,-,N/A,,Clear,230,2012-12-14 18:36:00
1:57 PM,51.8,28.4,41,30.26,10.0,WSW,4.6,-,N/A,,Clear,240,2012-12-14 18:57:00
2:21 PM,53.6,26.6,35,30.25,10.0,SW,5.8,-,N/A,,Clear,230,2012-12-14 19:21:00
2:42 PM,53.6,26.6,35,30.25,10.0,WSW,5.8,-,N/A,,Clear,240,2012-12-14 19:42:00
3:03 PM,53.6,26.6,35,30.24,10.0,SSW,6.9,-,N/A,,Clear,210,2012-12-14 20:03:00
3:24 PM,51.8,26.6,38,30.24,10.0,SW,5.8,-,N/A,,Clear,220,2012-12-14 20:24:00
3:45 PM,51.8,26.6,38,30.24,10.0,SW,4.6,-,N/A,,Clear,230,2012-12-14 20:45:00
4:27 PM,46.4,30.2,53,30.24,10.0,SW,4.6,-,N/A,,Clear,220,2012-12-14 21:27:00
4:48 PM,44.6,28.4,53,30.23,10.0,Calm,Calm,-,N/A,,Clear,0,2012-12-14 21:48:00
5:09 PM,41.0,30.2,65,30.23,10.0,Calm,Calm,-,N/A,,Clear,0,2012-12-14 22:09:00
5:30 PM,37.4,30.2,75,30.24,10.0,Calm,Calm,-,N/A,,Clear,0,2012-12-14 22:30:00
5:51 PM,37.4,30.2,75,30.25,10.0,Calm,Calm,-,N/A,,Clear,0,2012-12-14 22:51:00
6:12 PM,35.6,28.4,75,30.25,10.0,Calm,Calm,-,N/A,,Clear,0,2012-12-14 23:12:00
6:36 PM,33.8,28.4,81,30.26,10.0,Calm,Calm,-,N/A,,Clear,0,2012-12-14 23:36:00
6:57 PM,33.8,30.2,87,30.26,10.0,Calm,Calm,-,N/A,,Clear,0,2012-12-14 23:57:00
7:18 PM,32.0,28.4,87,30.26,10.0,Calm,Calm,-,N/A,,Clear,0,2012-12-15 00:18:00
7:39 PM,32.0,28.4,87,30.26,10.0,Calm,Calm,-,N/A,,Clear,0,2012-12-15 00:39:00
8:00 PM,32.0,28.4,87,30.26,10.0,Calm,Calm,-,N/A,,Clear,0,2012-12-15 01:00:00
8:21 PM,32.0,28.4,87,30.26,10.0,Calm,Calm,-,N/A,,Clear,0,2012-12-15 01:21:00
8:42 PM,32.0,28.4,87,30.26,10.0,Calm,Calm,-,N/A,,Clear,0,2012-12-15 01:42:00
9:03 PM,30.2,28.4,93,30.27,10.0,Calm,Calm,-,N/A,,Clear,0,2012-12-15 02:03:00
9:24 PM,30.2,28.4,93,30.27,10.0,Calm,Calm,-,N/A,,Clear,0,2012-12-15 02:24:00
9:45 PM,30.2,28.4,93,30.27,10.0,Calm,Calm,-,N/A,,Clear,0,2012-12-15 02:45:00
10:06 PM,30.2,26.6,86,30.28,10.0,Calm,Calm,-,N/A,,Clear,0,2012-12-15 03:06:00
10:27 PM,30.2,28.4,93,30.27,10.0,Calm,Calm,-,N/A,,Clear,0,2012-12-15 03:27:00
10:51 PM,30.2,28.4,93,30.27,10.0,Calm,Calm,-,N/A,,Clear,0,2012-12-15 03:51:00
11:12 PM,30.2,28.4,93,30.28,10.0,Calm,Calm,-,N/A,,Clear,0,2012-12-15 04:12:00
11:33 PM,28.4,26.6,93,30.28,10.0,Calm,Calm,-,N/A,,Clear,0,2012-12-15 04:33:00
11:54 PM,28.4,26.6,93,30.27,10.0,Calm,Calm,-,N/A,,Clear,0,2012-12-15 04:54:00